User: anonymous   Login
Location: Alta
(39.2070°N, 120.8111°W)
Time: 22:33:00
(UTC+00:00)
Language:

SPROUT - Orbit

View from above orbital plane
View from above orbital plane
View from above satellite
View from above satellite

Ground track
Ground track

The orbit data is extracted from the following two-line orbital elements,

1 39770U 14029E   23090.34537377  .00030638  00000-0  25457-2 0  9990
2 39770  97.9569 215.5876 0010160 212.8187 147.2395 14.98631927480489
Epoch (UTC): 31 March 2023 08:17:20
Eccentricity: 0.0010160
inclination: 97.9569°
perigee height: 564 km
apogee height: 578 km
right ascension of ascending node: 215.5876°
argument of perigee: 212.8187°
revolutions per day: 14.98631927
mean anomaly at epoch: 147.2395°
orbit number at epoch: 48048

The dashed part of the orbit path shows where the satellite is in the earth's shadow,  

DLR